Location: Aranbee
(34.0885°N, 118.2342°W)
Time: 04:22:45
(UTC+00:00)

Courier 1B Rocket - Pass Details

Date: 01 December 2020
Orbit: 920 x 1202 km, 28.2° (Epoch: 16 January)

Event Time Altitude Azimuth Distance (km) Brightness Sun altitude
Exits shadow 10:53:04 21° 128° (SE) 2,409 7.3 -46.5°
Drops below altitude 10° 10:56:35 10° 104° (ESE) 3,129 8.2 -45.8°
Sets 11:00:02 0° 91° (E) 4,093 9.0 -45.1°
